This is the latest recevied weather packets stored in our database for station/object VE6HFD-WX. If no packets are shown the sender has not sent any weather packets the latest 1 day(s).
| Time | Temp. | Humidity | Pressure | Rain* | Wind** | Luminosity | Snow |
|---|---|---|---|---|---|---|---|
| 1777984856 | -5° C | 88% | 1022.1 hPa | 0 mm | 0.89 m/s, 296° | - | - |
| 1777984526 | -5° C | 88% | 1022.1 hPa | 0 mm | 0.89 m/s, 296° | - | - |
| 1777984196 | -5° C | 88% | 1022.1 hPa | 0 mm | 1.34 m/s, 296° | - | - |
| 1777983866 | -5° C | 88% | 1022 hPa | 0 mm | 1.34 m/s, 295° | - | - |
| 1777983566 | -5° C | 88% | 1021.9 hPa | 0 mm | 0.89 m/s, 290° | - | - |
| 1777983236 | -5.56° C | 88% | 1021.9 hPa | 0 mm | 1.34 m/s, 286° | - | - |
| 1777982906 | -5° C | 88% | 1021.9 hPa | 0 mm | 2.68 m/s, 278° | - | - |
| 1777982606 | -5.56° C | 87% | 1021.9 hPa | 0 mm | 2.68 m/s, 282° | - | - |
| 1777982276 | -5.56° C | 87% | 1021.9 hPa | 0 mm | 2.24 m/s, 280° | - | - |
| 1777981946 | -5.56° C | 87% | 1021.9 hPa | 0 mm | 2.24 m/s, 283° | - | - |
| 1777981616 | -5.56° C | 87% | 1021.9 hPa | 0 mm | 2.24 m/s, 282° | - | - |
| 1777981286 | -5.56° C | 87% | 1021.9 hPa | 0 mm | 2.68 m/s, 282° | - | - |
| 1777980986 | -5° C | 87% | 1021.8 hPa | 0 mm | 3.13 m/s, 281° | - | - |
| 1777980656 | -5.56° C | 87% | 1021.8 hPa | 0 mm | 3.13 m/s, 281° | - | - |
| 1777980326 | -5° C | 86% | 1021.8 hPa | 0 mm | 3.13 m/s, 283° | - | - |
| 1777980026 | -5° C | 86% | 1021.9 hPa | 0 mm | 2.24 m/s, 285° | - | - |
| 1777979696 | -5° C | 85% | 1021.8 hPa | 0 mm | 2.24 m/s, 284° | - | - |
| 1777979366 | -5° C | 86% | 1021.7 hPa | 0 mm | 1.34 m/s, 284° | - | - |
| 1777979036 | -4.44° C | 86% | 1021.8 hPa | 0 mm | 1.34 m/s, 284° | - | - |
| 1777978736 | -4.44° C | 86% | 1021.8 hPa | 0 mm | 1.34 m/s, 284° | - | - |
| 1777978436 | -4.44° C | 86% | 1021.8 hPa | 0 mm | 2.24 m/s, 282° | - | - |
| 1777978106 | -4.44° C | 85% | 1021.7 hPa | 0 mm | 2.68 m/s, 279° | - | - |
| 1777977806 | -4.44° C | 85% | 1021.7 hPa | 0 mm | 2.68 m/s, 281° | - | - |
| 1777977476 | -4.44° C | 85% | 1021.6 hPa | 0 mm | 2.24 m/s, 282° | - | - |
| 1777977176 | -3.89° C | 84% | 1021.6 hPa | 0 mm | 2.68 m/s, 281° | - | - |
* Rain latest hour (hover to see other rain measurements)
** Current wind speed in m/s (hover to see current wind gust speed)